Showing default

ALISIO-1, 58562

Orbit data source: Space-Track

ALISIO-1, 58562 is a payload satellite owned by IAC (ES) in SSO that was launched on Fri, 01 Dec 2023 UTC via an FALCON 9 launch vehicle from the Air Force Western Test Range (AFWTR). Payload-class satellites include a variety of spacecraft equipped with specific instruments for various scientific and technological missions. These include communications satellites like Starlink; space stations such as the ISS; scientific satellites like the Hubble; Earth observation satellites from companies like Planet Labs, Umbra, and HawkEye 360; GPS; miniature CubeSats for education and research; and military/defense satellites.

Loading next visibility...
Identifier
58562, 2023-185M
Orbit
SSO
Country
Flag of ESES / SPN
Related business
Manufacturer
IAC
Mission
Operational Amateur Imaging
Bus & Motor
CUBESAT 6U, Unknown motor
Mass
10 kg wet, 10 kg dry
Launch date (UTC)
2023-12-01 (3 years ago)
Launch vehicle
FALCON 9
Launch site
Air Force Western Test Range (AFWTR)
Object type
Payload
Rocket body
Debris
Shape & HBR
Box, 1.0 m
Radar Cross Section
0.080 m², Medium (>0.1 m² and < 1m²)

Expand to show TLE details & history
Last TLE update: 6 hours ago

TLE from 6 hours ago
0 ALISIO-1
1 58562U 23185M   26222.86103461  .00001832  00000-0  95011-4 0  9992
2 58562  97.5341 295.9195 0007773 120.3529 239.8474 15.17403233146842
Epoch: 2026-08-10T20:39Z
TLE epoch observation values (Epoch: 2026-08-10T20:39:53.390Z)
Latitude
-0°
Longitude
26.60944°
Altitude
519.47 km
Speed
7.602 km/s
True Right ascension
19h 43m 40s
True Declination
0° 00' 00"
Sunlit
Object was in full shadow at epoch
Visualization orbit readout
Latitude
Unknown
Longitude
Unknown
Altitude
Unknown
Speed
Unknown
Apparent Right ascension
Unknown
Apparent Declination
Unknown
Sunlit
N/A
Visualization observer readout
Local Sidereal Time
16:53:09
Azimuth
Unknown
Elevation
Unknown
Doppler factor
Unknown
Orbital elements
Apogee altitude
516.022 km
Perigee altitude
505.312 km
Semi-major axis
6,888.804 km
Eccentricity
0.00078
Inclination
97.5341°
RAAN
295.9195°
Arg. of periapsis
120.3529°
True anomaly
239.77042°
Mean anomaly
239.8474°
Eccentric anomaly
239.80891°
Mean motion
3.79601 °/min
Orbital period
94.84 mins
BSTAR
0.000095011
Loading maneuver chart data...
Computing Atmospheric mass density...
Loading historical data...
Loading historical data...
Loading historical data...
Loading historical data...
Loading historical data...
Loading historical data...
Loading historical data...

Documentation

Showing up to 5 results
|